This is the latest recevied weather packets stored in our database for station/object KD4WXI. If no packets are shown the sender has not sent any weather packets the latest 1 day(s).
| Time | Temp. | Humidity | Pressure | Rain* | Wind** | Luminosity | Snow |
|---|---|---|---|---|---|---|---|
| 1777997429 | 25° C | 44% | 1017 hPa | 0 mm | 0.89 m/s, 237° | 650 W/m² | - |
| 1777997127 | 25.56° C | 47% | 1017 hPa | 0 mm | 0.89 m/s, 284° | 627 W/m² | - |
| 1777996824 | 24.44° C | 45% | 1017.3 hPa | 0 mm | 0.45 m/s, 269° | 662 W/m² | - |
| 1777996519 | 25° C | 46% | 1017.1 hPa | 0 mm | 0.89 m/s, 257° | 656 W/m² | - |
| 1777996216 | 25° C | 47% | 1017.1 hPa | 0 mm | 0.45 m/s, 228° | 673 W/m² | - |
| 1777995913 | 25° C | 47% | 1016.9 hPa | 0 mm | 0.45 m/s, 238° | 644 W/m² | - |
| 1777995609 | 24.44° C | 48% | 1017.2 hPa | 0 mm | 0.89 m/s, 312° | 615 W/m² | - |
| 1777995307 | 24.44° C | 49% | 1017.2 hPa | 0 mm | 0.89 m/s, 292° | 602 W/m² | - |
| 1777995003 | 24.44° C | 47% | 1017.2 hPa | 0 mm | 1.34 m/s, 238° | 604 W/m² | - |
| 1777994700 | 24.44° C | 48% | 1017.1 hPa | 0 mm | 0.45 m/s, 255° | 607 W/m² | - |
| 1777994395 | 23.89° C | 51% | 1017.2 hPa | 0 mm | 0.45 m/s, 278° | 626 W/m² | - |
| 1777994091 | 23.89° C | 51% | 1017.2 hPa | 0 mm | 0.45 m/s, 278° | 626 W/m² | - |
| 1777993788 | 23.89° C | 47% | 1017.3 hPa | 0 mm | 0.89 m/s, 160° | 627 W/m² | - |
| 1777993485 | 23.89° C | 50% | 1017.2 hPa | 0 mm | 0.89 m/s, 20° | 627 W/m² | - |
| 1777993184 | 23.33° C | 52% | 1017.3 hPa | 0 mm | 1.34 m/s, 259° | 612 W/m² | - |
| 1777992883 | 23.33° C | 51% | 1017.2 hPa | 0 mm | 0.89 m/s, 256° | 602 W/m² | - |
| 1777992581 | 23.33° C | 52% | 1017.1 hPa | 0 mm | 0 m/s | 581 W/m² | - |
| 1777992279 | 23.33° C | 54% | 1017.2 hPa | 0 mm | 1.34 m/s, 181° | 573 W/m² | - |
| 1777991975 | 22.78° C | 53% | 1017 hPa | 0 mm | 0.89 m/s, 271° | 549 W/m² | - |
| 1777991673 | 22.22° C | 52% | 1017.4 hPa | 0 mm | 0 m/s | 522 W/m² | - |
| 1777991370 | 22.22° C | 54% | 1017.3 hPa | 0 mm | 0.89 m/s, 218° | 506 W/m² | - |
| 1777991067 | 21.67° C | 54% | 1017.1 hPa | 0 mm | 0.89 m/s, 308° | 485 W/m² | - |
| 1777990765 | 21.67° C | 55% | 1017.1 hPa | 0 mm | 1.34 m/s, 246° | 493 W/m² | - |
| 1777990462 | 21.67° C | 55% | 1017.1 hPa | 0 mm | 0.45 m/s, 175° | 439 W/m² | - |
| 1777990159 | 21.67° C | 55% | 1017.2 hPa | 0 mm | 0.45 m/s, 289° | 430 W/m² | - |
* Rain latest hour (hover to see other rain measurements)
** Current wind speed in m/s (hover to see current wind gust speed)